Location: Larrial
(48.2758°N, 4.5331°W)
Time: 01:59:08
(UTC+00:00)

XW-2F - Pass Details

Date: 01 December 2021
Orbit: 495 x 515 km, 97.5° (Epoch: 16 January)

Event Time Altitude Azimuth Distance (km) Brightness Sun altitude
Rises 18:40:56 0° 207° (SSW) 2,597 ? -21.6°
Reaches altitude 10° 18:43:39 10° 230° (SW) 1,723 ? -22.1°
Maximum altitude 18:46:00 16° 269° (W) 1,396 ? -22.5°
Drops below altitude 10° 18:48:23 10° 309° (NW) 1,742 ? -22.9°
Sets 18:51:10 0° 331° (NNW) 2,639 ? -23.3°
